SCP
0 0 0 0 0 0 0 0 0 0 0 0 0 0 0 0 0 0 0 0 0 0 0 0 0 0 0 0 0 0 0 0 0 0 0 0 0 0 0 0 0 0 0 0 -0
0 0 0 0 0 0 0 0 0 0 0 0 0 0 0 0 0 0 0 0 0 0 0 0 0 0 0 0 0 0 0 0 0 0 0 0 0 0 0 0 0 0 0 0 0
0 0 0 0 0 0 0 0 0 0 0 0 0 0 0 0 0 0 0 0 0 0 0 0 0 0 0 0 0 0 0 0 0 0 0 0 0 0 0 0 0 0 0 0 0
0 0 0 0 0 0 0 0 0 0 0 0 0 0 0 0 -0 0 0 0 0 0 0 0 0 0 0 0 0 0 0 0 0 0 0 0 0 0 0 0 0 0 0 0 0
0 0 0 0 0 0 0 0 0 0 0 0 0 0 0 0 0 0 0 0 0 0 0 0 0 0 0 0 0 0 0 0 0 0 0 0 0 0 0 0 0 0 0 0 0
0 0 0 0 0 0 0 0 0 0 0 0 0 0 0 0 0 0 0 0 0 0 0 0 0 0 0 0 0 0 0 0 0 0 0 0 0 0 0 0 0 0 0 0 0
0 0 0 0 0 0 0 0 0 0 0 0 0 0 0 0 0 0 0 0 0 0 0 0 0 0 0 0 0 0 0 0 0 0 0 0 0 0 0 0 0 0 0 0 0
0 0 0 0 0 0 0 0 0 0 0 0 0 0 0 0 0 0 0 0 0 0 0 0 0 0 0 0 0 0 0 0 0 0 0 0 0 0 0 0 0 0 0 0 0
0 0 0 0 0 0 0 0 0 0 0 0 0 0 0 0 0 0 0 0 0 0 0 0 0 0 0 0 0 0 0 0 0 0 0 0 0 0 0 0 0 0 0 0 0
0 0 0 0 0 0 0 0 0 0 0 0 0 0 0 0 0 0 0 0 0 0 0 0 0 0 0 0 0 0 0 0 0 0 0 0 0 0 0 0 0 0 0 0 0
0 0 0 0 0 0 0 0 0 0 0 0 0 0 0 0 0 0 0 0 0 0 0 0 0 0 0 0 0 0 0 0 0 0 0 0 0 0 0 0 0 0 0 0 0
0 0 0 0 0 0 0 0 0 0 0 0 0 0 0 0 0 0 0 0 0 0 0 0 0 0 0 0 0 0 0 0 0 0 0 0 0 0 0 0 0 0 0 0 0
0 0 0 0 0 0 0 0 0 0 0 -0 0 0 0 0 0 0 0 0 0 0 0 0 0 0 0 0 0 0 0 0 0 0 0 0 0 0 0 0 0 0 0 0 0
0 0 0 0 0 0 0 0 0 0 0 -0 0 -0 0 0 0 0 0 0 0 0 0 0 0 0 0 0 0 0 0 0 0 0 0 0 0 -0 0 0 0 0 0 0 0
0 0 0 0 0 0 0 0 0 0 -0 -0 0 0 0 0 0 0 0 0 0 0 0 0 0 0 0 0 0 0 0 0 0 0 0 0 0 -0 0 0 0 0 0 0 0
0 0 0 0 0 0 0 0 0 0 -0 0 0 0 0 0 0 0 0 0 0 0 0 0 0 0 0 0 0 0 0 0 0 0 0 0 0 -0 0 0 0 0 0 0 0
0 0 0 0 0 0 0 0 0 0 0 0 0 0 0 0 0 0 0 0 0 0 0 0 0 0 0 0 0 0 0 0 0 0 0 0 0 0 0 0 0 0 0 0 0
0 0 0 0 0 0 0 0 0 -0 0 0 0 0 0 0 0 0 0 0 0 0 0 0 0 0 0 0 0 0 0 0 0 0 0 0 0 0 0 0 -0 0 0 0 0
0 0 0 0 0 0 0 0 0 0 0 -0 0 0 0 0 0 0 0 0 0 0 0 0 0 0 0 0 0 0 0 0 0 0 0 0 0 0 0 0 0 0 0 0 0
0 0 0 0 0 0 0 0 0 0 0 0 0 0 0 0 0 0 0 0 0 0 0 0 0 0 0 0 0 0 0 0 0 0 0 0 0 0 0 0 0 0 0 0 0
0 0 0 0 0 0 0 0 -0 0 0 0 0 0 0 0 0 0 0 0 0 0 0 0 0 0 0 0 0 0 0 0 0 0 0 0 0 0 0 0 0 0 0 0 0
0 0 0 0 0 0 0 0 -0 -0 -0 0 0 0 0 0 0 0 0 0 0 0 0 0 0 0 0 0 0 0 0 0 0 0 0 0 0 0 0 0 0 0 0 0 0
0 0 0 0 0 0 0 0 0 -0 -0 0 0 0 0 0 0 0 0 0 0 0 0 0 0 0 0 0 0 0 0 0 0 0 0 0 0 0 0 0 0 0 0 0 0
0 0 0 0 0 0 0 0 0 -0 -0 0 0 0 0 0 0 0 0 0 0 0 0 0 0 0 0 0 0 0 0 0 0 0 0 0 0 0 0 0 0 0 0 0 0
0 0 0 0 0 0 0 0 0 -0 -0 -0 0 0 0 0 0 0 0 0 0 0 0 0 0 0 0 0 0 0 0 0 0 0 0 0 0 0 0 0 0 0 0 0 0
0 0 0 0 0 0 0 0 0 0 -0 0 0 0 0 0 0 0 0 0 0 0 0 0 0 0 0 0 0 0 0 0 0 0 0 0 0 0 0 0 0 0 0 0 0
0 0 0 0 0 0 0 0 0 0 0 0 0 0 0 0 0 0 0 0 0 0 0 0 0 0 0 0 0 0 0 0 0 0 0 0 0 0 0 0 0 0 0 0 0
Wind_Speed_500mb
52 54 54 55 55 56 56 50 59 51 42 49 38 33 38 38 38 51 53 51 74 38 52 42 38 33 24 17 14 9 15 20 24 18 9 13 18 14 15 13 19 17 2 9 46
51 49 56 54 57 58 59 56 49 60 50 38 41 34 37 43 38 57 65 60 38 46 52 53 39 41 20 13 11 13 19 27 5 12 5 15 17 21 15 24 23 20 12 25 39
51 50 53 58 57 58 59 61 55 49 66 54 46 40 48 47 36 69 69 56 61 60 48 44 34 36 29 21 17 14 21 16 12 8 3 6 16 16 27 25 29 31 28 36 42
54 54 51 56 57 61 61 60 58 54 43 64 53 47 42 50 32 57 79 76 53 47 54 48 44 45 34 27 31 11 24 17 13 13 10 9 7 17 32 23 15 22 35 42 45
58 61 58 55 55 57 58 60 59 59 48 49 52 56 48 51 78 53 32 74 58 54 56 56 56 51 36 40 35 31 29 25 14 15 13 10 18 20 29 36 14 18 37 42 41
62 62 69 60 55 54 57 55 55 56 53 56 52 51 64 66 55 78 83 48 80 68 61 63 46 54 36 36 35 33 22 25 19 18 12 13 18 9 19 29 30 25 37 39 42
67 69 64 63 58 56 56 53 53 53 50 59 65 47 74 66 48 69 80 89 80 76 70 64 47 48 23 21 19 15 22 16 20 19 12 15 24 24 28 21 36 32 34 35 36
77 74 69 59 61 58 49 53 50 53 51 56 74 57 67 86 53 59 70 64 67 60 70 51 56 54 30 22 25 21 17 20 25 26 12 16 39 34 38 31 37 39 38 38 40
77 73 67 63 58 59 50 48 50 48 51 54 59 77 42 67 83 58 48 51 49 46 54 45 41 33 23 32 18 29 21 34 20 36 19 24 31 42 22 36 39 40 43 41 38
71 64 56 55 54 55 51 45 46 49 49 48 71 37 35 72 93 83 70 46 32 24 18 37 27 18 25 32 31 25 31 31 34 25 32 26 35 31 20 33 40 38 38 39 40
69 63 58 55 52 51 46 39 35 22 59 47 28 77 53 41 73 70 93 48 31 18 10 33 14 36 54 46 28 34 35 29 28 19 22 38 36 40 37 30 33 37 41 42 46
69 68 61 55 52 52 49 57 46 22 13 74 100 96 86 74 33 62 74 45 23 20 31 15 27 39 42 43 35 37 35 29 7 15 15 28 38 37 42 36 34 42 43 43 42
69 69 66 55 49 50 55 55 44 41 13 26 107 106 69 80 47 67 92 64 43 27 22 21 25 40 43 39 34 32 31 29 24 18 19 13 33 37 42 48 42 42 37 47 45
69 67 68 57 48 44 48 46 41 32 11 14 33 48 67 61 36 84 89 68 12 38 30 23 40 40 35 40 39 32 25 17 17 17 16 16 14 23 47 43 38 54 51 49 46
72 67 71 69 31 44 21 36 44 15 14 19 22 39 78 51 59 55 79 35 37 29 15 15 20 43 40 45 35 13 25 20 15 15 15 18 12 11 19 31 45 51 60 61 61
74 66 65 57 42 27 29 25 34 11 20 14 10 24 40 22 48 80 50 35 45 25 24 8 24 20 20 32 30 29 25 18 10 10 14 29 22 16 25 32 33 46 65 69 67
75 65 66 50 38 41 35 32 16 20 3 9 11 22 48 22 24 57 39 25 24 20 13 6 8 11 24 30 18 29 34 11 12 13 14 5 19 30 12 19 28 30 47 57 62
72 61 59 50 34 29 37 11 18 19 18 2 11 45 23 50 40 44 55 43 41 35 30 27 15 30 29 30 23 36 36 11 15 11 12 2 15 11 22 35 41 26 25 18 26
64 54 50 52 47 38 22 23 8 6 20 21 20 52 17 36 32 38 41 50 37 43 32 32 13 36 37 15 34 34 34 2 9 4 3 14 16 16 32 20 19 23 26 34 32
65 44 38 46 44 39 8 27 12 13 17 24 30 26 21 42 38 39 49 52 34 41 18 22 15 25 11 9 24 26 25 16 10 12 11 6 8 17 4 10 8 9 23 25 30
51 22 28 48 47 26 19 27 16 33 36 35 34 19 20 28 54 60 70 49 53 57 28 27 11 15 14 27 41 16 25 14 14 7 6 5 4 2 3 6 9 10 12 11 15
38 10 34 67 14 13 24 34 23 22 39 33 21 31 51 56 55 45 54 39 77 50 41 15 12 19 41 9 7 29 28 30 13 12 3 5 7 7 6 1 7 9 8 3 5
35 14 31 75 18 23 24 39 30 22 20 23 11 38 40 46 28 35 42 16 75 44 42 18 12 16 14 9 8 29 31 42 15 5 14 12 7 4 7 10 8 4 6 3 4
22 9 10 49 42 31 36 34 47 26 29 28 20 40 42 42 21 39 31 35 63 42 32 16 10 14 26 21 21 28 36 30 30 16 13 29 9 7 7 4 4 5 11 6 4
16 12 14 18 23 30 38 36 44 31 22 15 21 44 49 38 31 34 34 26 32 41 16 9 9 6 6 8 19 34 31 24 36 38 27 30 36 29 14 9 10 10 11 8 4
18 9 9 3 23 40 42 33 47 34 20 15 20 44 52 50 37 63 48 47 50 36 32 9 11 9 7 8 12 24 29 35 51 43 50 26 21 3 30 15 19 12 17 11 7
24 17 6 8 10 21 32 40 47 39 31 30 39 49 54 62 39 47 41 25 37 49 46 33 11 6 9 6 12 2 47 43 39 47 47 41 28 11 8 13 26 32 25 20 25
Wind_Direction_500mb
243 241 238 236 238 240 242 247 242 244 247 253 255 249 253 246 240 217 230 217 217 216 210 211 207 206 206 217 196 202 233 230 228 222 199 153 192 195 188 171 189 194 206 118 179
245 242 235 234 234 241 243 245 248 242 237 248 251 247 252 249 243 231 227 212 240 212 206 207 193 189 187 201 196 204 230 235 206 249 221 174 213 174 190 195 203 190 183 150 182
241 243 239 238 237 235 241 246 250 257 239 239 246 242 243 240 219 255 239 210 220 220 218 209 205 195 193 186 201 200 233 245 200 191 194 206 207 201 211 200 217 208 188 170 179
238 239 242 239 237 236 238 241 249 252 256 236 242 237 238 216 215 240 252 221 210 213 213 204 206 201 205 194 194 200 235 246 192 174 168 203 212 208 224 211 202 217 191 180 189
233 234 239 240 237 236 240 242 244 247 261 234 238 229 224 213 217 206 248 230 211 214 201 195 198 202 207 203 188 219 204 222 197 182 194 183 220 230 227 233 241 182 185 189 195
238 237 235 238 237 237 239 243 245 250 253 237 229 227 214 237 231 226 237 245 217 214 201 198 202 203 221 209 193 203 201 210 201 202 205 219 226 194 240 227 217 192 191 195 198
234 235 238 237 234 236 238 240 243 246 249 234 224 228 208 227 225 214 222 230 216 216 203 208 202 194 194 186 197 189 190 200 199 201 219 219 235 225 232 211 210 204 197 198 203
233 235 239 239 232 233 239 239 239 239 242 244 225 233 230 223 222 210 224 222 238 219 204 219 208 201 196 152 171 183 208 206 215 208 210 202 250 231 226 205 209 211 203 199 202
236 239 241 236 233 231 235 237 238 242 241 252 236 234 246 211 202 205 215 214 224 239 196 225 192 177 173 170 168 191 196 211 211 213 199 213 249 243 211 213 218 211 209 204 203
232 230 227 228 228 226 229 233 237 239 238 250 238 245 201 201 206 209 213 215 196 214 201 200 198 172 179 186 195 179 214 202 211 194 211 218 238 244 209 217 221 214 212 212 207
227 222 220 222 223 219 219 216 213 227 231 222 187 226 247 189 190 194 203 188 198 153 195 232 169 195 181 196 200 190 203 201 210 154 199 227 237 236 228 217 220 221 213 216 217
224 219 215 218 217 218 217 212 213 223 269 243 239 239 218 178 160 166 178 164 162 208 219 244 208 191 177 188 203 200 200 210 172 166 221 241 242 240 240 215 219 219 218 219 217
214 213 212 211 214 218 219 222 217 233 272 248 228 227 191 175 172 161 171 178 172 195 198 214 207 178 177 184 183 192 198 209 221 178 232 279 262 245 238 239 229 227 224 222 219
206 207 211 209 212 216 224 224 225 207 251 235 196 226 200 183 171 172 171 164 156 186 178 251 196 169 171 179 183 190 210 210 161 191 233 204 275 223 218 218 221 228 221 223 222
200 204 205 210 204 205 209 222 215 175 258 174 187 185 172 184 131 178 167 163 160 150 139 207 238 162 176 183 190 170 165 171 187 221 286 201 251 248 220 219 215 219 222 222 224
195 196 201 207 207 186 196 187 181 194 227 209 194 166 154 168 178 153 165 164 171 144 171 295 283 189 169 169 182 129 136 135 166 219 247 230 217 255 224 221 237 230 224 224 222
193 193 199 200 207 212 192 172 196 218 137 214 229 151 161 164 147 158 154 158 161 138 155 246 185 176 174 130 151 169 166 162 203 209 238 50 226 246 242 256 240 250 235 227 228
190 190 194 193 186 180 185 214 227 191 209 241 193 160 178 157 162 165 162 168 168 174 146 160 192 205 191 190 168 190 190 179 189 198 202 83 228 240 252 257 248 246 249 256 231
176 180 189 193 196 197 162 219 252 236 174 166 176 169 158 173 147 157 175 171 184 186 170 188 136 162 172 189 153 195 216 195 106 27 202 200 243 256 264 240 225 240 225 234 238
166 170 190 191 192 181 203 226 239 239 221 168 182 193 162 167 150 157 188 187 180 202 163 180 115 185 153 154 193 208 162 185 223 182 214 188 258 252 199 264 225 223 228 238 236
154 156 184 191 173 173 206 229 240 258 269 185 187 186 168 169 158 166 184 180 188 186 188 156 107 161 164 206 184 173 189 208 191 211 209 173 201 24 345 18 332 330 320 287 234
150 169 166 169 162 191 206 209 225 251 231 215 227 189 175 179 170 170 184 189 186 176 181 144 111 162 197 79 324 199 196 196 190 178 189 73 273 129 142 15 320 319 335 222 190
150 135 168 172 182 187 214 211 219 220 214 218 250 209 184 178 161 193 175 175 176 171 168 162 143 116 156 269 204 209 206 205 215 121 195 175 201 136 172 265 278 290 1 53 131
143 149 173 200 223 189 196 204 217 223 236 243 236 194 173 182 157 186 167 181 168 176 143 109 153 176 192 191 140 196 194 205 208 217 150 217 183 161 153 187 207 59 44 69 101
149 201 177 193 220 210 199 199 202 214 217 236 259 213 174 175 151 165 146 170 178 183 140 136 121 136 13 135 152 179 189 179 207 221 209 229 218 231 227 182 146 95 42 30 122
151 167 191 287 201 216 203 198 201 191 173 236 244 209 186 175 179 167 157 166 176 180 189 180 157 132 57 54 130 172 179 187 209 212 230 229 237 19 240 228 219 236 291 249 202
187 177 145 206 190 195 213 202 201 176 208 195 229 193 191 195 173 161 162 142 160 175 182 180 127 113 107 57 91 260 202 199 212 215 224 228 228 186 220 260 260 257 254 251 233
Wind_Speed_850mb
52 54 54 55 55 56 56 50 59 51 42 49 38 33 38 38 38 51 53 51 74 38 52 42 38 33 24 17 14 9 15 20 24 18 9 13 18 14 15 13 19 17 2 9 46
51 49 56 54 57 58 59 56 49 60 50 38 41 34 37 43 38 57 65 60 38 46 52 53 39 41 20 13 11 13 19 27 5 12 5 15 17 21 15 24 23 20 12 25 39
51 50 53 58 57 58 59 61 55 49 66 54 46 40 48 47 36 69 69 56 61 60 48 44 34 36 29 21 17 14 21 16 12 8 3 6 16 16 27 25 29 31 28 36 42
54 54 51 56 57 61 61 60 58 54 43 64 53 47 42 50 32 57 79 76 53 47 54 48 44 45 34 27 31 11 24 17 13 13 10 9 7 17 32 23 15 22 35 42 45
58 61 58 55 55 57 58 60 59 59 48 49 52 56 48 51 78 53 32 74 58 54 56 56 56 51 36 40 35 31 29 25 14 15 13 10 18 20 29 36 14 18 37 42 41
62 62 69 60 55 54 57 55 55 56 53 56 52 51 64 66 55 78 83 48 80 68 61 63 46 54 36 36 35 33 22 25 19 18 12 13 18 9 19 29 30 25 37 39 42
67 69 64 63 58 56 56 53 53 53 50 59 65 47 74 66 48 69 80 89 80 76 70 64 47 48 23 21 19 15 22 16 20 19 12 15 24 24 28 21 36 32 34 35 36
77 74 69 59 61 58 49 53 50 53 51 56 74 57 67 86 53 59 70 64 67 60 70 51 56 54 30 22 25 21 17 20 25 26 12 16 39 34 38 31 37 39 38 38 40
77 73 67 63 58 59 50 48 50 48 51 54 59 77 42 67 83 58 48 51 49 46 54 45 41 33 23 32 18 29 21 34 20 36 19 24 31 42 22 36 39 40 43 41 38
71 64 56 55 54 55 51 45 46 49 49 48 71 37 35 72 93 83 70 46 32 24 18 37 27 18 25 32 31 25 31 31 34 25 32 26 35 31 20 33 40 38 38 39 40
69 63 58 55 52 51 46 39 35 22 59 47 28 77 53 41 73 70 93 48 31 18 10 33 14 36 54 46 28 34 35 29 28 19 22 38 36 40 37 30 33 37 41 42 46
69 68 61 55 52 52 49 57 46 22 13 74 100 96 86 74 33 62 74 45 23 20 31 15 27 39 42 43 35 37 35 29 7 15 15 28 38 37 42 36 34 42 43 43 42
69 69 66 55 49 50 55 55 44 41 13 26 107 106 69 80 47 67 92 64 43 27 22 21 25 40 43 39 34 32 31 29 24 18 19 13 33 37 42 48 42 42 37 47 45
69 67 68 57 48 44 48 46 41 32 11 14 33 48 67 61 36 84 89 68 12 38 30 23 40 40 35 40 39 32 25 17 17 17 16 16 14 23 47 43 38 54 51 49 46
72 67 71 69 31 44 21 36 44 15 14 19 22 39 78 51 59 55 79 35 37 29 15 15 20 43 40 45 35 13 25 20 15 15 15 18 12 11 19 31 45 51 60 61 61
74 66 65 57 42 27 29 25 34 11 20 14 10 24 40 22 48 80 50 35 45 25 24 8 24 20 20 32 30 29 25 18 10 10 14 29 22 16 25 32 33 46 65 69 67
75 65 66 50 38 41 35 32 16 20 3 9 11 22 48 22 24 57 39 25 24 20 13 6 8 11 24 30 18 29 34 11 12 13 14 5 19 30 12 19 28 30 47 57 62
72 61 59 50 34 29 37 11 18 19 18 2 11 45 23 50 40 44 55 43 41 35 30 27 15 30 29 30 23 36 36 11 15 11 12 2 15 11 22 35 41 26 25 18 26
64 54 50 52 47 38 22 23 8 6 20 21 20 52 17 36 32 38 41 50 37 43 32 32 13 36 37 15 34 34 34 2 9 4 3 14 16 16 32 20 19 23 26 34 32
65 44 38 46 44 39 8 27 12 13 17 24 30 26 21 42 38 39 49 52 34 41 18 22 15 25 11 9 24 26 25 16 10 12 11 6 8 17 4 10 8 9 23 25 30
51 22 28 48 47 26 19 27 16 33 36 35 34 19 20 28 54 60 70 49 53 57 28 27 11 15 14 27 41 16 25 14 14 7 6 5 4 2 3 6 9 10 12 11 15
38 10 34 67 14 13 24 34 23 22 39 33 21 31 51 56 55 45 54 39 77 50 41 15 12 19 41 9 7 29 28 30 13 12 3 5 7 7 6 1 7 9 8 3 5
35 14 31 75 18 23 24 39 30 22 20 23 11 38 40 46 28 35 42 16 75 44 42 18 12 16 14 9 8 29 31 42 15 5 14 12 7 4 7 10 8 4 6 3 4
22 9 10 49 42 31 36 34 47 26 29 28 20 40 42 42 21 39 31 35 63 42 32 16 10 14 26 21 21 28 36 30 30 16 13 29 9 7 7 4 4 5 11 6 4
16 12 14 18 23 30 38 36 44 31 22 15 21 44 49 38 31 34 34 26 32 41 16 9 9 6 6 8 19 34 31 24 36 38 27 30 36 29 14 9 10 10 11 8 4
18 9 9 3 23 40 42 33 47 34 20 15 20 44 52 50 37 63 48 47 50 36 32 9 11 9 7 8 12 24 29 35 51 43 50 26 21 3 30 15 19 12 17 11 7
24 17 6 8 10 21 32 40 47 39 31 30 39 49 54 62 39 47 41 25 37 49 46 33 11 6 9 6 12 2 47 43 39 47 47 41 28 11 8 13 26 32 25 20 25
Wind_Direction_850mb
243 241 238 236 238 240 242 247 242 244 247 253 255 249 253 246 240 217 230 217 217 216 210 211 207 206 206 217 196 202 233 230 228 222 199 153 192 195 188 171 189 194 206 118 179
245 242 235 234 234 241 243 245 248 242 237 248 251 247 252 249 243 231 227 212 240 212 206 207 193 189 187 201 196 204 230 235 206 249 221 174 213 174 190 195 203 190 183 150 182
241 243 239 238 237 235 241 246 250 257 239 239 246 242 243 240 219 255 239 210 220 220 218 209 205 195 193 186 201 200 233 245 200 191 194 206 207 201 211 200 217 208 188 170 179
238 239 242 239 237 236 238 241 249 252 256 236 242 237 238 216 215 240 252 221 210 213 213 204 206 201 205 194 194 200 235 246 192 174 168 203 212 208 224 211 202 217 191 180 189
233 234 239 240 237 236 240 242 244 247 261 234 238 229 224 213 217 206 248 230 211 214 201 195 198 202 207 203 188 219 204 222 197 182 194 183 220 230 227 233 241 182 185 189 195
238 237 235 238 237 237 239 243 245 250 253 237 229 227 214 237 231 226 237 245 217 214 201 198 202 203 221 209 193 203 201 210 201 202 205 219 226 194 240 227 217 192 191 195 198
234 235 238 237 234 236 238 240 243 246 249 234 224 228 208 227 225 214 222 230 216 216 203 208 202 194 194 186 197 189 190 200 199 201 219 219 235 225 232 211 210 204 197 198 203
233 235 239 239 232 233 239 239 239 239 242 244 225 233 230 223 222 210 224 222 238 219 204 219 208 201 196 152 171 183 208 206 215 208 210 202 250 231 226 205 209 211 203 199 202
236 239 241 236 233 231 235 237 238 242 241 252 236 234 246 211 202 205 215 214 224 239 196 225 192 177 173 170 168 191 196 211 211 213 199 213 249 243 211 213 218 211 209 204 203
232 230 227 228 228 226 229 233 237 239 238 250 238 245 201 201 206 209 213 215 196 214 201 200 198 172 179 186 195 179 214 202 211 194 211 218 238 244 209 217 221 214 212 212 207
227 222 220 222 223 219 219 216 213 227 231 222 187 226 247 189 190 194 203 188 198 153 195 232 169 195 181 196 200 190 203 201 210 154 199 227 237 236 228 217 220 221 213 216 217
224 219 215 218 217 218 217 212 213 223 269 243 239 239 218 178 160 166 178 164 162 208 219 244 208 191 177 188 203 200 200 210 172 166 221 241 242 240 240 215 219 219 218 219 217
214 213 212 211 214 218 219 222 217 233 272 248 228 227 191 175 172 161 171 178 172 195 198 214 207 178 177 184 183 192 198 209 221 178 232 279 262 245 238 239 229 227 224 222 219
206 207 211 209 212 216 224 224 225 207 251 235 196 226 200 183 171 172 171 164 156 186 178 251 196 169 171 179 183 190 210 210 161 191 233 204 275 223 218 218 221 228 221 223 222
200 204 205 210 204 205 209 222 215 175 258 174 187 185 172 184 131 178 167 163 160 150 139 207 238 162 176 183 190 170 165 171 187 221 286 201 251 248 220 219 215 219 222 222 224
195 196 201 207 207 186 196 187 181 194 227 209 194 166 154 168 178 153 165 164 171 144 171 295 283 189 169 169 182 129 136 135 166 219 247 230 217 255 224 221 237 230 224 224 222
193 193 199 200 207 212 192 172 196 218 137 214 229 151 161 164 147 158 154 158 161 138 155 246 185 176 174 130 151 169 166 162 203 209 238 50 226 246 242 256 240 250 235 227 228
190 190 194 193 186 180 185 214 227 191 209 241 193 160 178 157 162 165 162 168 168 174 146 160 192 205 191 190 168 190 190 179 189 198 202 83 228 240 252 257 248 246 249 256 231
176 180 189 193 196 197 162 219 252 236 174 166 176 169 158 173 147 157 175 171 184 186 170 188 136 162 172 189 153 195 216 195 106 27 202 200 243 256 264 240 225 240 225 234 238
166 170 190 191 192 181 203 226 239 239 221 168 182 193 162 167 150 157 188 187 180 202 163 180 115 185 153 154 193 208 162 185 223 182 214 188 258 252 199 264 225 223 228 238 236
154 156 184 191 173 173 206 229 240 258 269 185 187 186 168 169 158 166 184 180 188 186 188 156 107 161 164 206 184 173 189 208 191 211 209 173 201 24 345 18 332 330 320 287 234
150 169 166 169 162 191 206 209 225 251 231 215 227 189 175 179 170 170 184 189 186 176 181 144 111 162 197 79 324 199 196 196 190 178 189 73 273 129 142 15 320 319 335 222 190
150 135 168 172 182 187 214 211 219 220 214 218 250 209 184 178 161 193 175 175 176 171 168 162 143 116 156 269 204 209 206 205 215 121 195 175 201 136 172 265 278 290 1 53 131
143 149 173 200 223 189 196 204 217 223 236 243 236 194 173 182 157 186 167 181 168 176 143 109 153 176 192 191 140 196 194 205 208 217 150 217 183 161 153 187 207 59 44 69 101
149 201 177 193 220 210 199 199 202 214 217 236 259 213 174 175 151 165 146 170 178 183 140 136 121 136 13 135 152 179 189 179 207 221 209 229 218 231 227 182 146 95 42 30 122
151 167 191 287 201 216 203 198 201 191 173 236 244 209 186 175 179 167 157 166 176 180 189 180 157 132 57 54 130 172 179 187 209 212 230 229 237 19 240 228 219 236 291 249 202
187 177 145 206 190 195 213 202 201 176 208 195 229 193 191 195 173 161 162 142 160 175 182 180 127 113 107 57 91 260 202 199 212 215 224 228 228 186 220 260 260 257 254 251 233